EW4600 Weather Reports


Display with metric or nautical units.
time (UTC)temp
F
wind
direction
speed
MPH
gust
MPH
rain 1hr
in
rain 24hr
in
rain mn
in
humidity
%
barometer
mb
20260906220046 97 102 1.0 8.0 0.00 0.00 0.00 40 1003.5
20260906214545 97 126 5.0 10.0 0.00 0.00 0.00 40 1003.6
20260906213049 96 65 5.0 10.0 0.00 0.00 0.00 41 1003.9
20260906211542 96 112 4.0 13.0 0.00 0.00 0.00 40 1004.0
20260906210039 96 75 3.0 9.0 0.00 0.00 0.00 41 1004.2
20260906204556 97 92 3.0 11.0 0.00 0.00 0.00 40 1004.3
20260906203038 98 99 6.0 13.0 0.00 0.00 0.00 40 1004.4
20260906201543 98 101 4.0 22.0 0.00 0.00 0.00 38 1004.5
20260906200035 98 144 2.0 8.0 0.00 0.00 0.00 40 1004.7
20260906194535 98 75 2.0 9.0 0.00 0.00 0.00 40 1004.8
20260906193031 97 360 5.0 12.0 0.00 0.00 0.00 39 1005.0
20260906191530 97 360 4.0 11.0 0.00 0.00 0.00 39 1005.1
20260906190029 97 124 5.0 12.0 0.00 0.00 0.00 40 1005.2
20260906184526 97 360 5.0 14.0 0.00 0.00 0.00 42 1005.4
20260906183024 96 360 3.0 9.0 0.00 0.00 0.00 43 1005.5
20260906181523 95 360 4.0 10.0 0.00 0.00 0.00 44 1005.8
20260906180037 96 71 4.0 10.0 0.00 0.00 0.00 44 1006.0
20260906174521 95 360 6.0 10.0 0.00 0.00 0.00 44 1006.3
20260906173018 95 171 6.0 12.0 0.00 0.00 0.00 44 1006.4
20260906171515 95 360 5.0 10.0 0.00 0.00 0.00 46 1006.7
20260906170013 94 360 2.0 7.0 0.00 0.00 0.00 48 1006.8
20260906164510 94 360 3.0 8.0 0.00 0.00 0.00 49 1007.0
20260906163006 93 360 3.0 8.0 0.00 0.00 0.00 49 1007.0
20260906161505 92 119 2.0 9.0 0.00 0.00 0.00 52 1006.9
20260906154600 91 24 2.0 4.0 0.00 0.00 0.00 55 1007.0
20260906153052 90 360 0.0 4.0 0.00 0.00 0.00 58 1007.0
20260906151548 88 360 1.0 5.0 0.00 0.00 0.00 60 1006.8
20260906150044 87 76 2.0 4.0 0.00 0.00 0.00 62 1006.6
20260906144541 86 360 0.0 3.0 0.00 0.00 0.00 65 1006.6
20260906143038 85 109 1.0 3.0 0.00 0.00 0.00 69 1006.6
20260906141531 83 128 0.0 3.0 0.00 0.00 0.00 73 1006.7
20260906140032 80 146 0.0 4.0 0.00 0.00 0.00 80 1006.7
20260906134528 77 119 2.0 5.0 0.00 0.00 0.00 84 1006.7
20260906133029 75 360 0.0 3.0 0.00 0.00 0.00 90 1006.6
20260906131537 73 360 0.0 3.0 0.00 0.00 0.00 91 1006.7
20260906130023 72 360 0.0 0.0 0.00 0.00 0.00 90 1006.5
20260906124521 71 180 0.0 0.0 0.00 0.00 0.00 89 1006.3
20260906123022 71 180 0.0 2.0 0.00 0.00 0.00 89 1006.3
20260906121520 71 360 0.0 0.0 0.00 0.00 0.00 88 1006.2
20260906120017 71 360 0.0 0.0 0.00 0.00 0.00 87 1006.0
20260906114514 72 360 0.0 0.0 0.00 0.00 0.00 86 1005.7
20260906113020 72 179 0.0 0.0 0.00 0.00 0.00 86 1005.7
20260906111510 73 180 0.0 0.0 0.00 0.00 0.00 86 1005.6
20260906110007 73 179 0.0 0.0 0.00 0.00 0.00 85 1005.4
20260906104507 73 179 0.0 0.0 0.00 0.00 0.00 84 1005.4
20260906103004 74 179 0.0 0.0 0.00 0.00 0.00 83 1005.2
20260906101503 74 360 0.0 0.0 0.00 0.00 0.00 83 1005.3
20260906094602 75 360 0.0 0.0 0.00 0.00 0.00 82 1005.1
20260906093057 76 360 0.0 0.0 0.00 0.00 0.00 81 1004.8
20260906091554 76 360 0.0 0.0 0.00 0.00 0.00 79 1004.6
20260906090056 77 179 0.0 0.0 0.00 0.00 0.00 79 1004.6
20260906084553 77 360 0.0 0.0 0.00 0.00 0.00 78 1004.7
20260906083052 78 360 1.0 3.0 0.00 0.00 0.00 77 1004.6
20260906081548 78 360 0.0 3.0 0.00 0.00 0.00 77 1004.4
20260906080044 79 360 0.0 3.0 0.00 0.00 0.00 76 1004.8
20260906074543 79 153 1.0 3.0 0.00 0.00 0.00 76 1005.0
20260906073045 79 360 1.0 5.0 0.00 0.00 0.00 76 1005.1
20260906071556 79 360 2.0 5.0 0.00 0.00 0.00 76 1004.8
20260906070040 79 360 2.0 5.0 0.00 0.00 0.00 76 1004.7
20260906064538 79 360 1.0 4.0 0.00 0.00 0.00 76 1005.0
20260906063036 79 360 0.0 3.0 0.00 0.00 0.00 75 1005.2
20260906061534 80 360 0.0 0.0 0.00 0.00 0.00 73 1005.1
20260906060035 80 167 0.0 0.0 0.00 0.00 0.00 73 1005.5
20260906054528 80 167 0.0 3.0 0.00 0.00 0.00 72 1005.4
20260906053029 81 159 1.0 5.0 0.00 0.00 0.00 72 1005.4
20260906051525 81 154 2.0 5.0 0.00 0.00 0.00 71 1005.4
20260906050024 81 152 0.0 0.0 0.00 0.00 0.00 70 1005.4
20260906044521 82 150 0.0 0.0 0.00 0.00 0.00 69 1005.3
20260906043029 82 360 0.0 0.0 0.00 0.00 0.00 67 1005.3
20260906041521 82 360 0.0 0.0 0.00 0.00 0.00 66 1005.1
20260906040028 83 360 0.0 3.0 0.00 0.00 0.00 64 1005.2
20260906034530 83 129 1.0 3.0 0.00 0.00 0.00 62 1005.2
20260906033025 84 360 1.0 4.0 0.00 0.00 0.00 61 1005.0
20260906031519 85 124 2.0 3.0 0.00 0.00 0.00 60 1005.0
20260906030017 85 360 2.0 4.0 0.00 0.00 0.00 58 1005.0
20260906024517 85 155 2.0 8.0 0.00 0.00 0.00 58 1004.8
20260906023017 82 130 4.0 14.0 0.00 0.00 0.00 61 1004.6
20260906021519 82 360 0.0 0.0 0.00 0.00 0.00 62 1004.3
20260906020015 84 360 0.0 0.0 0.00 0.00 0.00 59 1003.9
20260906014526 85 138 0.0 0.0 0.00 0.00 0.00 56 1003.7
20260906013016 87 360 0.0 0.0 0.00 0.00 0.00 53 1003.7
20260906011531 89 140 0.0 0.0 0.00 0.00 0.00 50 1003.5
20260906010014 91 139 0.0 1.0 0.00 0.00 0.00 45 1003.3
20260906004521 92 139 0.0 4.0 0.00 0.00 0.00 43 1003.4
20260906003013 93 137 0.0 4.0 0.00 0.00 0.00 41 1003.3
20260906001512 94 360 0.0 3.0 0.00 0.00 0.00 40 1003.2
20260906000012 95 96 0.0 4.0 0.00 0.00 0.00 39 1003.2
20260905234511 96 136 3.0 5.0 0.00 0.00 0.00 38 1003.0
20260905233011 96 136 2.0 5.0 0.00 0.00 0.00 37 1003.1
20260905231510 97 360 2.0 8.0 0.00 0.00 0.00 37 1003.0
20260905230014 97 360 2.0 8.0 0.00 0.00 0.00 37 1002.9
20260905224520 98 360 2.0 6.0 0.00 0.00 0.00 37 1002.9
20260905223008 97 94 1.0 8.0 0.00 0.00 0.00 38 1003.0
20260905221507 97 360 3.0 8.0 0.00 0.00 0.00 37 1003.0